Date String (YYYY-MM-DD hh:mm:ss) UTC,Instrument flags,Ambient pressure (hPa),Sample flow (lpm),Bypass flow (lpm),Sample temperature (°C),Ambient temperature (°C),ASC tube jacket temperature (°C),LED temperature (°C),Box temperature (°C),Sample RH (%),Span deviation,Mass concentration (μg/m³),Mass concentration (μg/m³),Mass concentration (μg/m³)
DateTimeUTC,F1_M11,P_M11,Q1_M11,Q2_M11,T1_M11,T2_M11,T3_M11,T4_M11,T5_M11,U1_M11,ZSPAN_M11,X0_M11,X2_M11,X1_M11
2022-02-02 18:00:00,,0826.7,4.99,0.00,22.6,23.5,00.0,31.5,24.5,05.9,0000.0,0003.25,0001.93,0001.50
2022-02-02 18:01:00,,0826.7,5.00,0.00,22.7,23.2,00.0,31.5,24.5,05.9,0000.0,0003.08,0001.90,0001.49
2022-02-02 18:02:00,,0826.7,5.00,0.00,22.6,22.8,00.0,31.5,24.4,06.0,0000.0,0003.16,0001.92,0001.49
2022-02-02 18:03:00,,0826.7,5.01,0.00,22.6,22.6,00.0,31.5,24.3,06.0,0000.0,0003.08,0001.92,0001.51
2022-02-02 18:04:00,,0826.7,4.99,0.00,22.5,22.3,00.0,31.5,24.1,06.1,0000.0,0003.10,0001.91,0001.51
2022-02-02 18:05:00,,0826.7,5.01,0.00,22.5,22.1,00.0,31.5,24.0,06.0,0000.0,0003.16,0001.94,0001.52
2022-02-02 18:06:00,,0826.7,4.99,0.00,22.4,21.9,00.0,31.5,23.9,06.0,0000.0,0003.44,0001.99,0001.52
2022-02-02 18:07:00,,0826.7,5.01,0.00,22.4,21.7,00.0,31.4,23.9,06.0,0000.0,0003.24,0001.99,0001.51
2022-02-02 18:08:00,,0826.8,5.01,0.00,22.4,22.4,00.0,31.5,24.1,06.0,0000.0,0003.32,0002.03,0001.52
2022-02-02 18:09:00,,0826.8,4.99,0.00,22.6,23.2,00.0,31.5,24.4,06.0,0000.0,0003.37,0002.05,0001.52
2022-02-02 18:10:00,,0826.8,5.01,0.00,22.7,23.5,00.0,31.6,24.6,05.9,0000.0,0003.32,0002.07,0001.54
2022-02-02 18:11:00,,0826.8,5.00,0.00,22.7,23.1,00.0,31.6,24.5,06.0,0000.0,0003.37,0002.10,0001.57
2022-02-02 18:12:00,,0826.7,5.00,0.00,22.7,22.8,00.0,31.6,24.4,05.9,0000.0,0003.60,0002.11,0001.59
2022-02-02 18:13:00,,0826.7,4.99,0.00,22.6,22.5,00.0,31.6,24.3,05.8,0000.0,0003.62,0002.07,0001.59
2022-02-02 18:14:00,,0826.7,5.00,0.00,22.6,22.2,00.0,31.5,24.1,05.9,0000.0,0003.59,0002.03,0001.59
2022-02-02 18:15:00,,0826.7,5.01,0.00,22.5,22.0,00.0,31.5,24.0,05.9,0000.0,0003.66,0002.06,0001.60
2022-02-02 18:16:00,,0826.7,4.98,0.00,22.4,21.8,00.0,31.5,24.0,05.9,0000.0,0003.63,0002.04,0001.59
2022-02-02 18:17:00,,0826.8,5.02,0.00,22.4,21.6,00.0,31.5,23.9,05.9,0000.0,0003.34,0001.98,0001.59
2022-02-02 18:18:00,,0826.8,5.00,0.00,22.4,22.3,00.0,31.5,24.1,06.0,0000.0,0003.32,0001.98,0001.60
2022-02-02 18:19:00,,0826.8,5.00,0.00,22.6,23.0,00.0,31.6,24.4,06.0,0000.0,0003.44,0002.03,0001.60
2022-02-02 18:20:00,,0826.8,5.00,0.00,22.7,23.1,00.0,31.6,24.5,06.0,0000.0,0003.42,0002.01,0001.61
2022-02-02 18:21:00,,0826.7,5.00,0.00,22.7,22.8,00.0,31.6,24.4,06.1,0000.0,0003.61,0002.05,0001.62
2022-02-02 18:22:00,,0826.7,4.98,0.00,22.6,22.5,00.0,31.6,24.2,06.2,0000.0,0003.70,0002.09,0001.64
2022-02-02 18:23:00,,0826.7,5.02,0.00,22.6,22.2,00.0,31.6,24.1,06.2,0000.0,0003.58,0002.11,0001.66
2022-02-02 18:24:00,,0826.7,4.99,0.00,22.5,22.0,00.0,31.5,24.0,06.2,0000.0,0003.52,0002.20,0001.70
2022-02-02 18:25:00,,0826.6,5.00,0.00,22.4,21.8,00.0,31.5,23.9,06.2,0000.0,0003.56,0002.26,0001.73
2022-02-02 18:26:00,,0826.6,4.99,0.00,22.4,21.9,00.0,31.5,23.9,06.1,0000.0,0003.55,0002.30,0001.74
2022-02-02 18:27:00,,0826.7,4.99,0.00,22.5,22.7,00.0,31.5,24.2,06.1,0000.0,0003.57,0002.32,0001.76
2022-02-02 18:28:00,,0826.6,5.00,0.00,22.6,23.4,00.0,31.6,24.4,06.0,0000.0,0003.57,0002.34,0001.77
2022-02-02 18:29:00,,0826.7,5.00,0.00,22.7,23.4,00.0,31.6,24.6,06.0,0000.0,0003.51,0002.34,0001.78
2022-02-02 18:30:00,,0826.6,5.01,0.00,22.7,23.1,00.0,31.6,24.4,05.9,0000.0,0003.28,0002.27,0001.78
2022-02-02 18:31:00,,0826.6,5.01,0.00,22.6,22.7,00.0,31.6,24.2,05.9,0000.0,0003.25,0002.26,0001.77
2022-02-02 18:32:00,,0826.6,5.00,0.00,22.5,22.4,00.0,31.6,24.1,05.9,0000.0,0003.17,0002.26,0001.74
2022-02-02 18:33:00,,0826.6,5.00,0.00,22.5,22.1,00.0,31.6,24.0,05.9,0000.0,0003.19,0002.24,0001.71
2022-02-02 18:34:00,,0826.6,4.99,0.00,22.4,22.2,00.0,31.5,24.0,05.9,0000.0,0003.32,0002.23,0001.69
2022-02-02 18:35:00,,0826.7,5.00,0.00,22.5,22.8,00.0,31.6,24.2,05.8,0000.0,0003.21,0002.16,0001.64
2022-02-02 18:36:00,,0826.6,5.01,0.00,22.7,23.6,00.0,31.6,24.5,05.8,0000.0,0003.11,0002.11,0001.61
2022-02-02 18:37:00,,0826.6,5.00,0.00,22.8,23.6,00.0,31.6,24.6,05.8,0000.0,0003.00,0002.05,0001.60
2022-02-02 18:38:00,,0826.6,5.00,0.00,22.8,23.2,00.0,31.7,24.5,05.8,0000.0,0002.98,0002.03,0001.59
2022-02-02 18:39:00,,0826.7,5.00,0.00,22.7,22.8,00.0,31.7,24.3,05.8,0000.0,0003.05,0002.03,0001.58
2022-02-02 18:40:00,,0826.6,4.99,0.00,22.6,22.4,00.0,31.6,24.2,05.8,0000.0,0003.33,0002.05,0001.58
2022-02-02 18:41:00,,0826.7,5.02,0.00,22.5,22.2,00.0,31.6,24.0,05.8,0000.0,0003.49,0002.04,0001.59
2022-02-02 18:42:00,,0826.7,4.99,0.00,22.4,22.0,00.0,31.6,23.9,05.8,0000.0,0003.46,0002.03,0001.60
2022-02-02 18:43:00,,0826.7,5.01,0.00,22.5,22.4,00.0,31.6,24.1,05.8,0000.0,0003.45,0002.02,0001.61
2022-02-02 18:44:00,,0826.7,5.00,0.00,22.6,23.2,00.0,31.6,24.4,05.7,0000.0,0003.52,0002.03,0001.61
2022-02-02 18:45:00,,0826.8,4.98,0.00,22.8,23.7,00.0,31.7,24.6,05.7,0000.0,0003.48,0002.05,0001.61
2022-02-02 18:46:00,,0826.7,5.00,0.00,22.8,23.4,00.0,31.7,24.6,05.7,0000.0,0003.42,0002.04,0001.62
2022-02-02 18:47:00,,0826.7,5.01,0.00,22.8,23.0,00.0,31.7,24.5,05.7,0000.0,0003.46,0002.04,0001.61
2022-02-02 18:48:00,,0826.6,5.01,0.00,22.7,22.7,00.0,31.7,24.4,05.7,0000.0,0003.59,0002.07,0001.61
2022-02-02 18:49:00,,0826.6,4.99,0.00,22.7,22.4,00.0,31.7,24.2,05.7,0000.0,0003.76,0002.13,0001.61
2022-02-02 18:50:00,,0826.7,4.99,0.00,22.6,22.1,00.0,31.7,24.1,05.7,0000.0,0003.89,0002.17,0001.61
2022-02-02 18:51:00,,0826.6,5.01,0.00,22.5,21.9,00.0,31.6,24.0,05.7,0000.0,0003.71,0002.15,0001.60
2022-02-02 18:52:00,,0826.6,4.99,0.00,22.6,22.4,00.0,31.6,24.1,05.7,0000.0,0003.43,0002.16,0001.60
2022-02-02 18:53:00,,0826.6,5.00,0.00,22.7,23.1,00.0,31.7,24.4,05.7,0000.0,0003.35,0002.13,0001.59
2022-02-02 18:54:00,,0826.6,5.00,0.00,22.8,23.3,00.0,31.7,24.6,05.7,0000.0,0003.30,0002.10,0001.58
2022-02-02 18:55:00,,0826.6,5.00,0.00,22.8,22.9,00.0,31.7,24.5,05.7,0000.0,0003.14,0002.05,0001.57
2022-02-02 18:56:00,,0826.6,5.01,0.00,22.7,22.6,00.0,31.7,24.3,05.6,0000.0,0003.00,0002.02,0001.58
2022-02-02 18:57:00,,0826.6,4.99,0.00,22.6,22.3,00.0,31.7,24.2,05.7,0000.0,0003.09,0002.05,0001.58
2022-02-02 18:58:00,,0826.6,5.00,0.00,22.6,22.1,00.0,31.7,24.1,05.7,0000.0,0003.60,0002.07,0001.59
2022-02-02 18:59:00,,0826.6,5.01,0.00,22.5,21.9,00.0,31.6,24.0,05.8,0000.0,0005.42,0002.09,0001.61
